Regional Weather Roundup
Issued by NWS

Home | Current Version | Previous Version | Text Only | Print | Product List | Glossary On
Versions: 1 2 3 4 5 6 7 8 9 10 11 12 13 14 15 16 17 18 19 20 21 22 23 24 25 26 27 28 29 30 31 32 33 34 35 36 37 38 39 40 41 42 43 44 45 46 47 48 49 50
000
ASUS44 KFWD 111401
RWRTX
NORTH TEXAS HOURLY WEATHER ROUNDUP
NATIONAL WEATHER SERVICE FORT WORTH TX
800 AM CST THU FEB 11 2016

NOTE: "FAIR" INDICATES FEW OR NO CLOUDS BELOW 12,000 FEET WITH NO
SIGNIFICANT WEATHER AND/OR OBSTRUCTIONS TO VISIBILITY.

TXZ118-119-111500-
DALLAS/FORT WORTH METROPLEX

CITY           SKY/WX    TMP DP  RH WIND       PRES   REMARKS
DFW AIRPORT    PTCLDY    47  32  56 CALM      30.09R
DALLAS LOVE    PTCLDY    49  34  56 CALM      30.09R
FTW MEACHAM    CLEAR     55  29  36 N3        30.09R
DAL-EXECUTIVE  CLEAR     51  31  46 SW3       30.09R
FTW-ALLIANCE   PTCLDY    47  31  53 CALM      30.10R
FTW-NAS-JRB    PTCLDY    53  29  39 CALM      30.10R
FTW-SPINKS     CLEAR     46  30  53 NW3       30.11R
ARLINGTON      CLEAR     40  33  76 S3        30.10R
GRAND PRAIRIE  CLEAR     45  34  65 CALM      30.11
ADDISON        CLEAR     48  32  53 CALM      30.08S
MESQUITE       CLEAR     41  34  75 S6        30.10R WCI  37
LANCASTER      CLEAR     39  30  70 CALM      30.11R
$$

TXZ091>094-102>105-117-120-121-131>134-111500-
NORTH CENTRAL TEXAS

CITY           SKY/WX    TMP DP  RH WIND       PRES   REMARKS
SHRMAN/DENISON CLEAR     44  31  58 CALM      30.09R
GAINESVILLE    CLEAR     47  29  49 NW7       30.11R
BRIDGEPORT     CLEAR     46  32  58 CALM      30.11R
DECATUR        CLEAR     50  25  38 W8        30.09R
DENTON         CLEAR     40  32  73 CALM      30.09R
MCKINNEY       CLEAR     42  35  76 SW5       30.09R WCI  39
ROCKWALL       CLEAR     45  35  67 SW5       30.08R
TERRELL        CLEAR     44  35  70 CALM      30.11R
WAXAHACHIE     CLEAR     50  33  53 W5        30.12R
CLEBURNE       CLEAR     55  28  35 CALM      30.10R
GRANBURY       CLEAR     53  32  44 NW5       30.11R
$$

TXZ083>090-098>101-113>116-127>130-139>142-154-155-111500-
WESTERN NORTH TEXAS

CITY           SKY/WX    TMP DP  RH WIND       PRES   REMARKS
WICHITA FALLS  CLOUDY    41  30  65 N6        30.11R WCI  37
WF-KICKAPOO    CLOUDY    46  31  56 N8        30.12R
VERNON         CLEAR     44  27  50 N9        30.14R WCI  39
ABILENE        CLEAR     54  26  34 W5        30.10R
ABILENE-DYESS  CLEAR     50  27  39 N6        30.09R
MINERAL WELLS  CLEAR     41  31  67 N6        30.08R WCI  37
COMANCHE       CLEAR     58  29  33 SW18G24   30.09S
BROWNWOOD      CLEAR     36  27  69 CALM      30.14S
$$

TXZ143>147-156>162-174-175-111500-
CENTRAL TEXAS

CITY           SKY/WX    TMP DP  RH WIND       PRES   REMARKS
WACO           CLEAR     42  34  73 CALM      30.11R
WACO-TSTC      CLEAR     45  36  70 S5        30.12R
WACO-MCGREGOR  CLEAR     47  33  58 SW6       30.11R
HILLSBORO      CLEAR     43  31  63 S5        30.10R
CORSICANA      CLEAR     51  36  56 S9        30.11R
HEARNE         CLEAR     48  37  66 SE6       30.16R
TEMPLE         CLEAR     47  35  63 S8        30.13R
KILLEEN        CLEAR     58  29  33 SW7       30.11R
KILLEEN-SKYLRK CLEAR     55  32  41 SW6       30.12R
FORT HOOD      CLEAR     55  30  38 SW5       30.10R
HAMILTON       CLEAR     57  29  35 SW13      30.12R
LAMPASAS       CLEAR     55  32  41 SW6       30.12R
$$

TXZ095>097-106>112-122>126-135>138-148>153-164>167-111500-
EAST TEXAS

CITY           SKY/WX    TMP DP  RH WIND       PRES   REMARKS
PARIS          CLEAR     45  30  57 W6        30.06R
SULPHUR SPRNGS CLEAR     51  36  55 SW12      30.09S
GILMER           N/A    N/A N/A N/A MISG        N/A
MINEOLA        CLEAR     52  36  54 CALM      30.11R
TYLER          CLEAR     55  36  48 SW9       30.10R
LONGVIEW       CLEAR     54  38  54 SW8       30.08R
MARSHALL       SUNNY     50  38  64 CALM      30.11R
ATHENS         CLEAR     45  37  76 S3        30.11R
PALESTINE      CLEAR     49  40  73 SE3       30.14R
JACKSONVILLE   CLEAR     53  38  58 SW8       30.14R
NACOGDOCHES    SUNNY     52  37  58 SW8       30.14R
LUFKIN         SUNNY     43  41  93 CALM      30.16R
$$

SUPPLEMENTAL OBSERVATIONS (CENTRAL)

CITY           SKY/WX    TMP DP  RH WIND       PRES   REMARKS
$$

SUPPLEMENTAL OBSERVATIONS (WEST)

CITY           SKY/WX    TMP DP  RH WIND       PRES   REMARKS
$$

SUPPLEMENTAL OBSERVATIONS (EAST)

CITY           SKY/WX    TMP DP  RH WIND       PRES   REMARKS
$$

SUPPLEMENTAL OBSERVATIONS ARE A COLLECTION OF AUTOMATED INSTRUMENTS
THAT ARE MAINTAINED BY A VARIETY OF FEDERAL AND STATE AGENCIES.
CERTAIN ELEMENTS...SUCH AS HUMIDITY VALUES AND SUSTAINED WIND
SPEEDS...MAY BE APPROXIMATED.




USA.gov is the U.S. government's official web portal to all federal, state and local government web resources and services.